TimeEST,TemperatureF,Dew PointF,Humidity,Sea Level PressureIn,VisibilityMPH,Wind Direction,Wind SpeedMPH,Gust SpeedMPH,PrecipitationIn,Events,Conditions,WindDirDegrees,DateUTC
12:51 AM,33.1,21.9,64,30.33,10.0,WNW,6.9,-,N/A,,Overcast,290,2013-01-15 05:51:00
1:51 AM,33.1,21.9,64,30.30,10.0,NW,5.8,-,N/A,,Overcast,310,2013-01-15 06:51:00
2:51 AM,32.0,21.9,66,30.30,10.0,NW,3.5,-,N/A,,Overcast,310,2013-01-15 07:51:00
3:51 AM,28.4,21.2,74,30.29,10.0,NNW,3.5,-,N/A,,Scattered Clouds,330,2013-01-15 08:51:00
4:51 AM,28.0,21.0,75,30.28,10.0,NW,8.1,-,N/A,,Scattered Clouds,310,2013-01-15 09:51:00
5:51 AM,30.9,23.0,72,30.31,10.0,WNW,6.9,-,N/A,,Overcast,300,2013-01-15 10:51:00
6:51 AM,30.9,23.0,72,30.33,10.0,WNW,3.5,-,N/A,,Mostly Cloudy,290,2013-01-15 11:51:00
7:51 AM,30.9,23.0,72,30.33,10.0,WNW,3.5,-,N/A,,Mostly Cloudy,290,2013-01-15 12:51:00
8:51 AM,33.1,23.0,66,30.36,10.0,West,4.6,-,N/A,,Mostly Cloudy,280,2013-01-15 13:51:00
9:51 AM,34.0,23.0,64,30.37,10.0,West,6.9,-,N/A,,Overcast,280,2013-01-15 14:51:00
10:51 AM,35.1,23.0,61,30.36,10.0,WNW,8.1,-,N/A,,Overcast,290,2013-01-15 15:51:00
11:51 AM,35.1,21.9,59,30.35,10.0,WNW,10.4,-,N/A,,Overcast,300,2013-01-15 16:51:00
12:51 PM,35.1,21.0,57,30.33,10.0,WNW,8.1,-,N/A,,Mostly Cloudy,300,2013-01-15 17:51:00
1:51 PM,36.0,18.0,48,30.31,10.0,West,5.8,16.1,N/A,,Mostly Cloudy,260,2013-01-15 18:51:00
2:51 PM,36.0,19.0,50,30.29,10.0,WNW,8.1,-,N/A,,Mostly Cloudy,290,2013-01-15 19:51:00
3:51 PM,33.8,19.4,56,30.31,10.0,WNW,8.1,-,N/A,,Mostly Cloudy,300,2013-01-15 20:51:00
4:51 PM,32.0,19.0,59,30.32,10.0,WNW,8.1,-,N/A,,Mostly Cloudy,300,2013-01-15 21:51:00
5:51 PM,32.0,19.0,59,30.32,10.0,WNW,6.9,-,N/A,,Mostly Cloudy,290,2013-01-15 22:51:00
6:51 PM,30.9,19.0,61,30.32,10.0,Calm,Calm,-,N/A,,Mostly Cloudy,0,2013-01-15 23:51:00
7:51 PM,30.9,19.0,61,30.31,10.0,Calm,Calm,-,N/A,,Mostly Cloudy,0,2013-01-16 00:51:00
8:51 PM,30.9,19.0,61,30.29,10.0,Calm,Calm,-,N/A,,Overcast,0,2013-01-16 01:51:00
9:51 PM,30.9,19.0,61,30.27,10.0,Calm,Calm,-,N/A,,Overcast,0,2013-01-16 02:51:00
10:51 PM,30.0,19.9,66,30.27,10.0,Calm,Calm,-,N/A,,Overcast,0,2013-01-16 03:51:00
11:51 PM,30.0,21.0,69,30.25,10.0,Calm,Calm,-,N/A,,Overcast,0,2013-01-16 04:51:00